SL-14 DEB, 45301

Orbit data source: Space-Track

SL-14 DEB, 45301 is space debris in LEO originally from a launch on Thu, 15 Aug 1991 UTC launched from the Plesetsk Missile And Space Complex (PKMTR). Debris objects in space refer to the collection of defunct objects orbiting the Earth. Examples of debris include non-operational satellites, rocket bodies, and fragments generated from explosions, collisions, or faulty payload assembly.

Loading next visibility...
Identifier
45301, 1991-056AP
Orbit
LEO
Country
Flag of CISCIS
Related business
Manufacturer
Unknown
Mission
Spacecraft
Bus & Motor
Unknown
Mass
Unknown
Launch date (UTC)
1991-08-15 (34 years ago)
Launch vehicle
Unknown
Launch site
Plesetsk Missile And Space Complex (PKMTR)
Object type
Payload
Rocket body
Debris
Shape & HBR
Unknown shape, 0.6 m
Radar Cross Section
Medium (>0.1 m² and <1 m²)

Expand to show TLE details & history
Last TLE update: 11 hours ago

TLE from 11 hours ago
0 SL-14 DEB
1 45301U 91056AP  26036.69222273  .00001692  00000-0  20868-2 0  9998
2 45301  82.4881 122.2265 0134345  39.2256 321.8532 13.60945598295058
Epoch: 2026-02-05T16:36Z
TLE epoch observation values (Epoch: 2026-02-05T16:36:48.043Z)
Latitude
-0.00008°
Longitude
97.18551°
Altitude
957.336 km
Speed
7.412 km/s
True Right ascension
08h 08m 54s
True Declination
0° 00' 00"
Sunlit
Object was in full shadow at epoch
Visualization orbit readout
Latitude
Unknown
Longitude
Unknown
Altitude
Unknown
Speed
Unknown
Apparent Right ascension
Unknown
Apparent Declination
Unknown
Sunlit
N/A
Visualization observer readout
Local Sidereal Time
05:49:45
Azimuth
Unknown
Elevation
Unknown
Doppler factor
Unknown
Orbital elements
Apogee altitude
1,128.96 km
Perigee altitude
929.926 km
Semi-major axis
7,407.58 km
Eccentricity
0.01343
Inclination
82.4881°
RAAN
122.2265°
Arg. of periapsis
39.2256°
True anomaly
320.88962°
Mean anomaly
321.8532°
Eccentric anomaly
321.37269°
Mean motion
3.40431 °/min
Orbital period
105.75 mins
BSTAR
0.0020868
Loading maneuver chart data...
Computing Atmospheric mass density...
Loading historical data...
Loading historical data...
Loading historical data...
Loading historical data...
Loading historical data...
Loading historical data...
Loading historical data...

Documentation

Showing up to 5 results
|